Location: Bothwell
(42.3833°S, 147.0000°E)
Time: 20:57:25
(UTC+11:00)

AO-85 - Pass Details

Date: 02 October 2022
Orbit: 513 x 757 km, 64.8° (Epoch: 24 November)

Event Time Altitude Azimuth Distance (km) Brightness Sun altitude
Rises 23:01:16 0° 270° (W) 2,792 ? -36.5°
Reaches altitude 10° 23:04:41 10° 240° (WSW) 1,957 ? -36.9°
Maximum altitude 23:06:40 13° 213° (SSW) 1,821 ? -37.1°
Drops below altitude 10° 23:08:42 10° 187° (S) 2,034 ? -37.3°
Sets 23:12:26 0° 158° (SSE) 3,017 ? -37.7°
